Miscellaneous Local Product
Issued by NWS North Platte, NE

Home | Current Version | Previous Version | Text Only | Print | Product List | Glossary On
Versions: 1 2 3 4 5 6 7 8 9 10 11 12 13 14 15 16 17 18 19 20 21 22 23 24 25 26 27 28 29 30 31 32 33 34 35 36 37 38 39 40 41 42 43 44 45 46 47 48 49 50
000
AXUS43 KLBF 041810
MISLBF


WESTERN AND NORTH CENTRAL NEBRASKA HOURLY WEATHER ROUNDUP
NATIONAL WEATHER SERVICE NORTH PLATTE NE
100 PM CDT MON MAY 04 2015

***STATIONS NOT REPORTING VARIABLES SUCH AS SKY/WEATHER OR
PRESSURE ARE PROVIDED BY THE NEBRASKA DEPARTMENT OF
ROADS...RAWS...AND APRS NETWORKS...AND ARE NOT UNDER
NATIONAL WEATHER SERVICE QUALITY CONTROL***

...OBSERVATIONS IN AND NEAR THE EASTERN PANHANDLE OF NEBRASKA...

CITY           SKY/WX    TMP DP  RH WIND       PRES   REMARKS
PINE RIDGE     LGT RAIN  52  37  56 SE8       30.21S
CHADRON        CLOUDY    51  37  58 E9        30.20S
ALLIANCE       LGT RAIN  53  32  44 E13       30.17F
SIDNEY         CLOUDY    57  39  51 SE9       30.16F
WHITECLAY        N/A     48  32  53 E14         N/A
CRESCENT LAKE    N/A     56  28  34 E9G17       N/A
BIG SPRINGS      N/A     58  36  44 E12         N/A
$$

...OBSERVATIONS IN NORTH CENTRAL NEBRASKA...

CITY           SKY/WX    TMP DP  RH WIND       PRES   REMARKS
VALENTINE      CLOUDY    62  24  23 E14       30.19F
THEDFORD       CLOUDY    65  28  24 NE22      30.16F
AINSWORTH      CLOUDY    64  24  21 NE15G25   30.18S
O`NEILL        PTSUNNY   64  30  28 E15G23    30.17S
ORD            CLOUDY    64  28  25 NE16G22   30.12S
BROKEN BOW     CLOUDY    63  29  27 E16       30.13R
BROWNLEE         N/A     62  26  25 E14         N/A
VALENTINE NWR    N/A     56  24  29 E13         N/A
SPRINGVIEW       N/A     67  26  21 NE9G18      N/A
HALSEY           N/A     61  25  25 E10G20      N/A
BREWSTER         N/A     64  28  25 E21         N/A
ROSE             N/A     63  32  31 NE17        N/A
NEWPORT          N/A     68  31  25 E14         N/A
SARGENT          N/A     63  29  28 NE9G18      N/A
COMSTOCK         N/A     66  35  32 E14         N/A
EWING            N/A     65  36  33 NE6         N/A
$$

...OBSERVATIONS IN SOUTHWEST NEBRASKA AND FAR NORTHEAST COLORADO...

CITY           SKY/WX    TMP DP  RH WIND       PRES   REMARKS
WRAY           LGT RAIN  49  46  88 NE9       30.14S
IMPERIAL       LGT RAIN  55  42  61 E8        30.13S
OGALLALA       CLOUDY    58  34  40 E13       30.14F
NORTH PLATTE   CLOUDY    60  32  34 E13       30.13S
MCCOOK         CLOUDY    57  43  59 NE12      30.12R
LEXINGTON      LGT RAIN  55  43  63 NE12      30.13R
PAXTON           N/A     59  35  41 E12         N/A
SUTHERLAND       N/A     55  28  35 E10         N/A
GOTHENBURG       N/A     54  37  52 E8          N/A
CALLAWAY         N/A     61  35  37 E14         N/A
$$

...NORTH PLATTE AREA...

CITY           SKY/WX    TMP DP  RH WIND       PRES   REMARKS
AIRPORT        CLOUDY    60  32  34 E13       30.13S
DOWNTOWN         N/A     59  35  40 E3          N/A
$$

...SOME WEATHER OBSERVATIONS FROM AROUND THE REGION...

CITY           SKY/WX    TMP DP  RH WIND       PRES   REMARKS
DENVER         CLOUDY    54  48  80 VRB3      30.14S
LARAMIE        CLOUDY    53  41  63 SE21      30.11F
CHEYENNE       LGT RAIN  51  41  68 S14       30.15S
SCOTTSBLUFF    CLOUDY    53  35  50 E15       30.17S
RAPID CITY     CLOUDY    48  39  71 S5        30.23R
PIERRE         CLOUDY    63  26  24 E7        30.21S
WINNER         PTSUNNY   67  22  18 E14       30.19F
SIOUX FALLS    PTSUNNY   70  30  22 E16       30.16F
OMAHA          LGT RAIN  65  56  72 NE7       30.08R
GRAND ISLAND   LGT RAIN  52  49  89 NE14G22   30.11F
KANSAS CITY    CLOUDY    74  61  63 SE7       30.05F
WICHITA        PTSUNNY   80  59  48 S13       30.02F
HAYS           CLOUDY    70  52  52 NW5       30.05S
LIBERAL        MOSUNNY   73  55  53 S13       30.06S
GOODLAND       LGT RAIN  57  47  69 E9        30.12R
$$



USA.gov is the U.S. government's official web portal to all federal, state and local government web resources and services.